HST

Last updated on Wed Nov 05 2025 00:02:14 GMT+0000 (Coordinated Universal Time)

1 20580U 90037B 25307.98744179 .00007510 00000+0 26478-3 0 9992 2 20580 28.4664 176.1122 0001844 152.3920 207.6773 15.27300295754064
UTC large
Height (km)
Speed (km/s)
/
Latitude / Longitude
Inclination (degrees)
Orbital Period (minutes)
Azimuth
Elevation
Range (km)
Doppler Factor

Next 0 passes for location: London (51.5072 / 0.1276)

Sorry there are no passes over London.